Powrót do katalogu

FENGYUN 1C DEB

AktywnySSO
NORAD 36153·DEBRIS·🇨🇳 China

Wystrzelony May 10, 1999 z Taiyuan Satellite Launch Center

Loading…

Następne Przeloty (najbliższe 24 godziny)

TLE

Starzejące sięSource: Space-Track

Epoka: Sep 8, 2026, 12:32 UTC

1 36153U 99025DSA 26251.52265159  .00004715  00000-0  11386-2 0  9992
2 36153  98.5923 352.7116 0028453 307.8374  52.0247 14.53378407688784

Śledź FENGYUN 1C DEB w czasie rzeczywistym z AllMySat

Download on the App Store